Dewpoint
13 13 14 14 14 14 13 13 14 15 15 15 15 14 15 16 15 15 17 17 16 15 14 14 14 14 14 13 13 12 13 13 13 13 13 12 12 12 12 12 13 14 14 15 15 14 14 14 14 14 13 12 11 11 11 11 11 12 12 11 11 12 12
13 13 13 14 14 14 13 13 14 14 15 15 14 13 15 16 15 14 16 16 14 14 14 14 14 14 14 13 13 13 13 13 13 13 13 11 11 11 11 12 12 12 12 13 14 14 14 14 13 14 13 12 12 11 11 11 11 11 12 11 11 12 12
12 12 13 13 14 14 13 13 13 12 13 14 13 13 14 15 14 12 14 15 12 12 13 14 13 14 15 14 14 14 13 13 14 13 13 12 11 11 12 12 12 12 11 11 12 12 13 14 13 13 12 12 12 12 11 12 11 11 12 12 12 12 12
11 11 12 13 14 14 12 10 9 9 12 13 14 13 12 12 12 11 11 12 12 11 12 13 13 13 14 13 13 13 13 13 13 13 13 13 13 12 12 12 12 12 12 11 11 10 10 11 12 11 10 10 11 12 12 12 12 12 12 12 12 12 12
11 11 12 13 14 14 13 10 8 8 11 12 13 14 12 10 10 11 10 10 11 12 11 11 13 13 11 11 11 10 10 11 13 13 13 13 13 12 11 11 12 12 12 12 12 8 5 7 9 9 9 9 10 12 12 12 12 12 12 12 12 12 11
11 11 12 12 13 14 14 12 9 9 11 12 13 14 12 11 11 12 12 10 11 13 12 11 14 14 10 9 9 9 9 11 12 13 13 12 12 11 12 12 11 12 13 13 13 10 6 6 8 8 8 11 12 13 13 12 12 12 12 12 12 12 11
10 12 12 12 13 14 14 13 11 10 11 11 13 14 13 13 14 14 14 13 12 13 14 14 14 13 9 8 8 8 9 9 11 12 12 12 11 11 12 11 8 10 13 14 14 12 9 8 8 7 7 10 12 12 11 9 9 10 11 10 10 11 11
10 12 13 13 13 13 13 13 12 11 11 12 12 14 14 14 14 15 15 15 15 15 16 16 16 13 8 7 7 6 6 7 7 10 11 12 12 12 12 10 5 8 14 15 14 13 10 9 9 7 6 7 9 9 7 3 2 5 7 8 9 10 11
10 12 13 13 13 13 12 13 13 12 13 13 13 14 14 14 15 15 15 16 17 17 16 17 17 15 9 6 6 4 5 6 6 9 12 12 12 11 10 7 5 9 14 15 14 12 10 8 8 6 5 5 7 7 6 3 0 1 4 6 8 8 8
11 12 14 13 12 13 12 12 13 13 14 15 15 14 13 14 15 15 16 16 17 18 17 16 17 17 12 5 4 5 7 8 7 9 12 12 12 11 6 4 7 10 13 14 12 10 8 7 7 5 1 -0 2 2 2 1 1 2 3 4 5 4 3
11 11 14 14 12 13 12 12 13 13 15 16 15 13 12 12 14 15 16 17 17 17 18 17 17 17 16 12 10 11 11 13 13 13 13 14 14 11 5 2 5 9 11 12 11 10 8 4 2 1 0 -0 0 1 0 0 1 2 3 4 3 2 2
11 12 14 14 13 13 13 14 15 14 14 14 14 13 11 11 12 14 16 17 17 17 18 18 17 17 18 17 15 15 17 18 18 17 17 17 14 8 3 2 2 4 7 8 9 9 7 3 -3 -1 4 5 5 4 2 -0 0 2 3 4 4 2 1
12 13 14 14 15 15 15 16 16 15 14 12 12 12 12 12 12 13 14 15 16 17 17 17 18 18 17 16 16 16 17 17 17 15 16 17 16 10 2 1 1 -0 1 2 3 3 3 3 0 -0 4 5 4 5 4 2 1 3 4 4 4 3 2
11 13 14 15 15 15 16 18 17 15 14 12 12 12 13 13 13 13 12 12 13 15 15 16 17 18 16 15 17 18 17 15 16 16 15 17 17 13 3 1 1 -1 -2 -0 1 1 1 2 2 1 2 3 3 3 5 4 2 3 5 3 3 4 4
12 13 14 15 14 12 14 17 17 15 14 12 12 13 13 13 13 12 12 12 11 12 14 15 16 16 16 17 18 18 18 18 18 18 17 18 18 13 5 2 1 -1 0 0 0 1 2 3 4 3 1 2 2 3 5 5 3 3 4 3 3 5 6
13 12 13 13 11 10 10 12 13 14 14 12 12 13 13 12 12 11 11 11 10 11 13 15 16 17 19 19 18 18 19 19 18 17 17 18 17 14 8 6 3 1 1 1 0 1 3 4 6 5 2 1 4 5 6 5 3 3 5 4 4 6 7
12 12 13 10 9 11 12 9 9 12 12 10 10 12 12 12 11 11 12 12 12 12 14 16 18 19 19 20 19 18 19 18 18 17 17 17 17 14 11 8 6 3 2 2 2 2 2 2 5 6 3 1 5 7 7 5 3 3 5 4 4 7 9
13 13 14 13 11 13 14 10 8 9 9 8 11 13 12 12 11 12 14 16 16 16 17 18 19 19 19 20 19 19 19 18 18 18 17 17 17 16 13 11 8 6 4 4 4 4 2 0 3 6 3 0 4 8 8 5 4 4 5 4 5 8 10
13 14 15 15 15 15 15 15 15 14 13 15 16 16 14 15 15 15 17 18 18 19 19 19 19 20 19 20 19 19 19 18 18 18 18 18 17 16 15 13 10 8 7 6 6 6 1 -2 3 7 5 1 4 9 8 5 5 7 7 7 8 10 11
13 15 15 15 16 16 15 16 16 15 15 17 18 17 18 19 18 17 17 17 17 17 18 18 19 19 19 19 19 18 19 19 18 18 18 17 17 16 16 14 12 10 8 7 7 5 1 0 2 6 6 4 5 8 8 5 7 9 9 10 11 10 10
12 14 14 15 16 16 15 15 15 15 15 17 17 17 17 17 17 16 17 16 15 15 16 16 17 19 19 18 18 18 18 19 19 18 18 18 17 16 16 15 13 12 10 8 6 4 2 2 2 4 8 9 8 8 6 5 7 10 11 12 12 9 7
11 12 13 13 13 13 13 14 14 13 14 14 15 15 15 15 16 17 17 15 12 12 12 12 15 16 16 15 16 17 18 19 19 18 18 18 17 16 15 14 13 13 12 10 9 7 5 4 2 4 9 11 9 8 7 6 9 11 12 11 9 7 4
11 12 13 14 13 12 12 12 12 12 12 12 11 11 12 14 16 15 13 10 6 4 6 8 10 12 13 14 15 17 18 19 19 18 18 18 17 16 15 14 13 13 12 12 11 11 9 6 4 5 10 12 11 9 8 7 8 11 11 8 6 4 2
11 12 13 14 13 12 11 12 12 10 11 13 11 8 8 10 9 7 4 3 1 1 3 5 7 10 13 14 13 15 17 18 18 18 18 17 17 16 15 14 13 12 12 12 12 12 10 9 9 10 13 13 11 10 9 9 10 10 8 4 2 2 3
11 13 14 14 12 12 12 13 12 12 13 13 9 5 4 3 3 2 2 2 3 3 4 5 7 9 10 10 12 14 16 17 17 17 17 17 17 16 14 13 12 12 12 12 13 12 12 12 12 13 13 13 12 11 9 10 11 9 5 2 2 2 4
13 13 14 14 14 13 12 11 12 13 13 10 5 3 3 3 3 3 4 4 5 5 5 6 7 7 7 8 11 14 15 16 17 17 17 17 16 15 14 13 12 12 12 12 13 13 13 12 12 13 12 12 12 11 9 9 10 8 4 4 4 4 6
14 15 15 15 13 11 10 10 11 11 9 5 4 5 5 5 6 6 5 6 5 5 6 6 6 7 6 7 11 13 15 16 16 17 17 17 16 15 13 12 11 9 9 10 12 13 13 12 11 11 11 11 11 11 10 9 9 7 5 6 7 7 7
15 15 14 12 11 11 11 10 8 7 6 6 7 7 7 7 7 7 6 5 5 5 5 5 6 6 6 9 13 15 15 16 16 17 17 17 16 15 12 10 9 7 7 9 11 11 12 12 11 10 10 10 10 11 10 8 6 5 5 7 8 7 6
13 13 11 8 8 10 11 9 7 7 7 8 8 7 7 7 7 6 5 4 3 4 3 4 6 6 7 10 14 16 16 16 16 16 16 16 16 14 11 9 8 7 6 8 10 11 11 12 11 11 11 10 10 9 8 5 4 5 6 7 7 7 7
9 8 8 8 8 8 8 6 6 6 7 8 8 8 8 7 6 6 6 6 5 6 5 6 7 7 10 13 15 16 16 16 16 16 15 15 15 14 11 8 7 7 6 8 10 12 12 11 10 10 10 10 9 8 6 4 4 5 6 7 7 8 9
9 8 8 8 8 8 7 6 5 5 6 6 6 7 7 7 6 7 7 8 8 8 8 9 8 9 12 14 14 14 15 15 15 15 15 15 14 12 9 7 7 7 7 8 11 11 11 10 10 10 9 9 8 7 5 5 6 6 6 7 8 9 9
10 10 9 7 7 8 9 7 5 5 6 5 5 5 5 5 5 6 8 8 8 9 10 11 10 9 12 13 13 13 13 15 15 15 15 15 13 11 8 8 9 8 7 8 11 11 10 10 10 10 9 9 9 7 4 5 6 7 8 9 9 9 8
8 8 7 5 4 6 7 6 5 4 4 4 5 6 6 5 4 6 9 10 10 12 12 12 11 11 12 14 14 14 15 15 15 15 14 13 12 11 10 10 11 10 9 10 11 11 11 11 11 10 9 9 10 9 7 5 6 7 8 9 9 8 8
8 7 6 5 4 4 5 5 5 4 4 5 5 6 7 7 6 7 10 13 14 15 14 13 13 14 15 15 15 15 15 15 15 14 13 12 12 12 12 12 12 12 11 11 11 12 11 11 11 10 10 10 10 9 7 6 6 7 8 9 9 9 8
9 7 6 5 4 3 4 4 3 3 4 5 6 7 8 8 9 11 14 16 17 16 15 14 15 16 16 16 15 15 15 15 14 14 13 13 12 12 12 12 12 12 12 11 10 11 11 11 11 10 10 9 9 7 6 7 8 9 9 9 8 8 6
8 7 7 6 4 4 4 3 3 4 4 5 6 7 8 9 11 14 16 17 17 17 16 16 16 16 16 16 16 15 15 15 14 14 13 13 13 13 12 12 11 11 11 10 10 10 10 10 10 10 8 7 8 7 6 8 9 8 8 7 6 6 5
7 8 8 7 5 4 4 4 4 4 5 6 7 7 8 10 12 14 16 17 18 17 17 17 16 16 15 15 15 15 15 14 14 14 14 14 13 12 12 11 11 11 10 10 9 8 8 7 8 7 5 6 7 7 6 7 8 7 7 7 6 6 5
5 7 8 7 5 5 5 6 7 7 6 7 7 8 10 11 12 14 15 17 18 18 17 17 16 15 14 14 14 15 15 14 14 14 14 13 12 11 11 10 10 9 9 8 8 7 5 4 4 4 3 4 6 6 6 7 7 7 7 7 6 5 5
Wind_Speed
25 28 32 33 33 33 35 34 32 32 33 35 38 38 36 36 37 35 32 33 35 34 32 32 31 30 30 31 31 31 30 29 28 27 27 26 24 23 22 19 18 15 13 11 10 11 10 10 10 11 11 10 9 8 8 9 8 7 7 7 6 6 6
24 27 31 33 34 35 35 35 34 35 35 37 40 40 38 37 40 39 35 36 38 37 34 33 32 31 31 31 31 31 31 31 30 29 28 28 26 24 22 20 17 15 13 11 10 10 9 9 10 10 10 9 8 8 8 8 8 7 7 7 7 7 7
24 26 28 31 33 35 36 37 39 41 39 38 39 40 40 39 41 42 40 39 40 38 36 35 34 32 31 32 32 31 32 32 31 31 30 29 27 24 22 20 17 14 12 11 10 10 9 10 11 10 10 9 8 8 8 8 8 7 7 8 7 8 8
25 26 27 30 31 34 39 43 45 45 42 38 38 40 42 43 43 43 42 41 40 39 38 37 36 34 33 34 34 32 33 33 32 32 31 28 26 25 23 21 18 14 12 11 11 11 10 10 10 10 10 9 8 8 9 9 8 8 8 8 8 9 9
24 26 27 29 31 32 38 45 47 46 42 38 37 39 41 43 43 42 41 41 39 38 39 39 36 36 37 37 37 36 36 34 32 31 30 28 26 25 24 22 18 14 13 13 11 11 10 10 10 10 10 9 8 8 9 9 9 9 9 9 9 9 9
22 25 27 29 31 32 36 43 46 44 42 39 37 38 41 41 41 41 39 39 39 38 38 38 37 37 39 39 39 39 38 35 31 30 29 28 27 25 23 22 19 15 15 14 12 11 10 10 10 9 8 8 8 8 9 10 10 10 10 10 10 10 10
20 23 27 29 31 33 35 39 43 43 42 39 36 36 39 39 38 38 37 37 39 38 37 37 38 39 41 40 40 40 39 37 34 31 30 29 28 27 25 23 21 18 16 14 12 12 11 10 10 9 7 8 9 10 11 11 11 11 11 11 12 11 11
19 22 27 30 32 34 34 36 39 41 40 39 37 36 38 38 36 36 36 35 35 36 37 35 35 40 43 41 41 42 41 40 39 35 32 30 28 27 25 24 23 19 17 15 12 11 10 9 9 8 8 9 10 11 12 12 12 12 12 13 13 13 12
17 21 25 28 30 32 33 33 34 37 38 39 39 38 38 39 37 35 35 33 32 34 36 35 33 37 43 43 43 43 42 42 42 37 32 32 31 28 24 22 21 19 19 16 11 7 8 9 8 8 9 11 12 13 13 14 14 14 15 15 15 15 14
15 18 20 24 26 28 30 30 31 34 36 39 42 43 42 41 38 35 33 32 32 31 33 34 33 34 41 47 46 44 44 45 43 39 35 34 31 26 24 21 19 20 20 16 8 5 9 11 11 12 14 17 18 17 17 17 16 16 17 17 18 18 17
13 16 18 21 23 25 27 28 31 35 37 40 44 47 47 45 41 37 33 32 31 30 30 33 34 33 37 43 44 43 44 43 41 37 35 34 31 28 26 25 23 22 21 19 15 13 17 21 21 22 22 23 22 22 23 21 19 18 18 18 19 19 18
13 15 16 19 21 24 25 27 31 36 40 42 45 47 48 48 46 41 37 35 32 30 30 31 33 33 32 35 38 39 37 34 33 32 30 30 31 31 30 30 29 28 27 27 26 27 30 31 30 29 27 24 23 24 25 24 21 20 19 19 19 20 18
15 13 14 17 20 22 25 27 31 36 41 43 44 44 45 47 47 44 42 41 37 33 33 33 31 30 33 38 39 37 36 35 37 38 34 32 33 34 34 33 32 32 36 38 35 37 42 41 37 36 34 31 30 29 27 25 22 21 21 19 19 20 19
17 14 13 16 20 24 26 28 31 36 39 40 41 42 42 42 42 43 44 45 42 38 38 37 32 32 38 41 35 32 37 39 39 38 37 35 35 34 33 33 31 31 36 41 40 41 46 45 41 40 40 39 39 38 33 28 25 23 22 20 20 20 19
16 16 16 18 23 27 29 29 32 35 37 38 39 40 40 39 39 40 41 42 42 41 39 37 35 36 36 34 30 29 32 32 31 31 32 32 33 32 33 36 36 35 39 42 42 41 43 42 40 41 43 43 42 40 34 29 26 25 23 22 20 20 19
15 16 18 21 24 29 33 34 35 35 36 37 38 39 40 40 40 39 39 38 38 39 37 33 32 30 26 24 30 32 30 29 29 29 28 26 27 36 43 45 45 46 48 47 44 41 41 42 42 42 45 45 39 34 30 27 26 25 23 22 20 19 19
15 16 19 23 26 29 32 34 35 35 37 38 39 39 40 39 38 36 35 34 33 33 32 28 27 24 19 19 26 30 30 31 33 32 31 28 26 34 43 48 50 52 53 52 49 44 41 42 44 43 46 46 36 29 29 29 27 25 24 24 21 19 19
13 15 16 19 23 26 30 34 36 38 39 37 37 38 38 36 34 33 31 28 26 25 24 23 22 19 18 21 25 28 28 29 30 31 32 30 28 29 35 43 50 53 53 52 49 46 42 44 46 45 47 46 37 30 29 29 27 24 24 24 23 20 20
11 11 11 13 17 22 27 28 30 33 33 30 30 32 32 29 28 28 27 24 22 20 18 18 18 17 20 24 26 26 26 25 25 26 26 26 25 25 29 37 44 49 49 45 43 44 45 48 49 46 46 45 38 32 30 27 25 23 22 23 23 22 22
10 9 10 11 14 19 24 24 23 26 28 25 25 25 23 22 21 22 22 21 21 19 17 16 16 17 21 24 21 21 22 21 21 21 21 21 20 22 27 32 37 42 44 43 43 45 47 49 49 47 47 45 39 33 29 26 24 23 23 24 25 24 23
11 11 11 12 14 18 23 25 25 27 27 24 23 22 20 19 18 17 18 17 17 17 16 16 16 17 18 19 16 17 19 20 20 19 18 17 17 20 23 25 28 33 39 42 43 45 46 48 49 47 43 40 37 33 29 26 26 26 25 26 28 28 26
11 13 15 16 17 19 21 23 26 29 29 26 24 22 21 20 19 18 19 18 18 18 17 15 15 15 13 13 13 16 19 20 19 17 15 16 17 19 20 20 23 27 33 38 40 42 44 45 47 45 39 35 34 33 30 28 28 27 25 26 28 29 27
10 12 14 16 17 19 21 22 25 27 27 27 27 27 27 26 24 24 24 23 22 21 19 17 16 14 13 13 13 15 18 18 15 14 15 16 17 18 18 19 20 22 26 31 33 36 38 40 43 41 35 33 33 32 30 31 30 27 25 25 27 28 28
12 12 14 16 18 19 21 23 24 26 27 29 31 33 33 32 31 29 28 26 23 22 20 18 16 14 13 13 12 12 14 14 13 14 17 17 17 17 18 18 19 19 21 24 27 30 32 34 33 30 27 28 30 29 28 28 27 24 24 26 29 30 30
13 13 15 17 19 21 23 25 29 31 30 31 34 37 36 35 33 31 28 25 23 21 20 19 16 15 14 12 12 12 12 13 14 15 17 17 17 17 17 17 17 18 21 24 27 28 27 26 24 21 20 22 25 28 27 25 23 23 24 27 31 32 30
15 16 17 19 22 27 31 34 34 33 32 34 37 37 35 33 31 28 25 24 22 20 19 18 16 15 15 15 15 15 15 15 17 17 18 18 18 17 17 17 17 18 21 23 22 21 20 20 19 19 18 17 20 26 27 23 22 24 24 25 27 27 25
16 17 19 24 30 35 37 38 37 34 34 36 36 33 32 30 28 26 24 23 21 20 19 17 16 15 15 16 17 18 18 17 18 19 19 19 18 17 18 19 18 18 19 18 16 16 17 17 17 18 17 15 17 20 21 20 20 21 20 20 20 20 18
20 22 27 33 37 36 35 36 37 35 34 34 31 30 29 27 26 24 22 21 19 18 18 16 14 15 16 16 18 19 19 19 20 21 20 19 19 20 21 22 21 20 18 16 14 15 16 16 16 17 17 17 18 18 17 18 18 18 18 18 18 16 14
28 31 34 36 34 31 30 32 34 33 31 30 28 27 25 23 22 21 18 16 14 13 14 14 15 16 17 18 19 19 19 19 21 22 21 21 21 23 24 24 23 21 20 17 15 15 16 15 16 17 16 17 19 18 16 17 19 19 18 17 15 13 12
32 31 30 29 27 25 27 30 30 29 28 26 25 23 20 16 14 14 13 13 11 11 13 15 16 18 18 18 19 19 19 19 20 20 21 21 23 24 25 25 24 22 20 17 16 16 15 15 15 15 15 16 17 16 16 17 18 16 14 13 12 11 11
27 26 25 25 24 22 22 24 24 23 21 20 19 18 16 12 10 11 12 12 11 11 14 16 17 19 19 19 19 19 19 20 20 20 20 21 24 26 26 25 23 20 17 16 16 16 14 14 15 15 15 16 17 19 19 17 15 13 11 10 10 11 12
25 23 23 24 25 22 19 19 20 19 17 16 14 13 12 11 10 8 9 10 9 11 15 17 18 18 18 18 18 19 19 19 20 21 21 23 26 28 27 24 20 16 14 13 15 16 15 15 15 15 16 17 18 21 20 17 13 12 11 10 10 11 11
25 23 22 23 24 23 19 18 18 16 14 13 11 9 8 9 9 9 9 10 12 16 19 19 17 18 17 16 16 17 17 17 18 18 19 22 26 25 22 19 15 14 13 14 15 15 16 16 16 16 17 17 17 18 17 14 11 10 9 9 10 11 10
23 23 22 21 21 21 19 17 15 12 11 10 9 8 8 8 10 11 12 13 16 19 21 20 18 17 16 15 14 14 15 15 17 17 17 21 23 21 18 15 13 13 13 13 13 14 15 16 16 15 15 15 15 14 14 12 10 10 10 10 11 11 10
22 21 21 20 18 18 17 15 13 10 9 9 9 9 10 11 12 13 14 15 16 17 19 20 17 15 15 14 14 14 14 15 15 16 18 21 22 20 17 15 12 13 13 13 12 13 14 15 14 12 12 12 12 12 12 12 12 12 12 13 13 12 12
21 20 19 19 18 16 14 13 11 10 9 9 9 10 11 12 13 14 14 14 14 15 16 17 15 15 15 14 13 14 14 14 16 17 18 18 17 16 15 14 12 13 14 14 14 13 13 14 15 14 12 10 10 12 12 12 13 13 13 13 13 13 13
19 18 17 17 16 15 13 11 10 8 8 8 9 9 10 12 13 14 13 12 13 14 15 15 16 16 16 14 14 14 15 15 16 16 15 14 12 12 13 13 13 13 14 14 13 11 12 15 17 15 13 11 10 12 13 13 13 12 13 14 14 14 13
16 15 14 14 14 14 12 10 8 6 5 6 7 8 9 10 11 13 12 12 13 13 14 15 18 18 17 16 16 16 16 16 15 13 12 13 12 11 11 11 10 11 11 11 12 12 14 15 15 13 13 13 13 13 13 12 12 13 14 15 15 14 13
Wind_Direction
200 199 198 196 195 198 203 205 204 203 203 205 209 209 208 210 211 210 211 214 216 215 214 216 218 218 220 222 221 221 221 220 219 218 217 217 216 217 219 221 225 229 233 239 243 244 245 238 230 230 236 239 233 227 228 226 218 214 222 223 215 215 215
201 200 199 197 195 196 199 201 202 205 206 208 212 212 209 209 213 212 211 215 217 216 215 217 218 217 219 222 221 221 222 221 220 220 219 218 217 217 219 223 227 230 236 243 246 245 242 237 238 239 238 237 231 228 230 229 224 217 223 233 230 233 235
203 202 200 199 197 195 196 200 206 210 210 208 211 212 211 211 214 215 214 217 219 218 217 218 218 217 219 222 222 222 222 221 222 222 220 221 220 218 220 223 224 226 233 242 249 248 239 235 241 243 238 232 230 233 231 229 232 226 222 231 236 241 250
202 203 200 199 197 196 199 205 210 213 210 208 208 210 213 214 216 217 217 218 220 219 218 217 218 219 221 223 225 224 224 224 224 224 224 225 225 223 222 223 223 222 226 233 244 251 245 240 243 248 247 241 234 234 234 229 230 232 228 230 236 242 250
201 201 199 199 197 195 199 207 211 212 208 207 207 210 214 216 218 219 219 219 220 220 220 218 219 222 225 227 229 229 228 228 227 227 228 228 228 225 223 224 223 223 228 236 250 259 255 246 245 251 255 254 249 241 238 236 232 236 237 234 239 245 250
202 199 197 198 198 195 199 207 210 210 208 206 206 210 214 216 217 218 219 220 220 220 221 220 220 225 228 228 230 231 231 232 230 229 228 228 228 226 226 228 226 226 235 246 258 264 260 252 249 254 257 250 246 239 239 243 238 238 241 240 243 247 249
198 196 197 197 197 197 201 206 207 207 208 206 204 208 213 214 215 216 216 219 220 219 219 220 221 225 228 229 230 232 233 234 232 230 230 230 230 229 231 234 231 232 242 250 259 267 265 260 258 261 262 252 246 247 251 254 248 243 246 250 253 255 255
196 194 198 196 197 199 201 205 206 205 205 204 203 205 210 212 212 213 214 214 216 216 216 217 218 224 228 229 230 232 233 235 235 233 232 229 227 227 231 233 230 233 246 245 248 268 273 269 270 273 276 272 266 266 269 269 263 255 254 256 256 255 256
200 195 197 197 198 201 201 203 205 202 201 202 202 203 208 211 211 211 212 211 211 214 215 214 214 222 229 229 229 231 232 234 236 234 231 229 227 225 226 230 230 235 246 242 235 263 283 278 279 282 281 279 275 274 272 269 266 263 259 257 255 255 256
200 197 198 200 201 202 201 201 201 200 199 199 202 205 209 213 212 210 210 210 210 211 214 214 212 218 228 231 231 232 233 235 235 232 230 227 223 219 216 222 231 239 249 253 245 269 293 289 281 274 269 267 265 264 263 261 261 261 260 259 258 259 259
211 208 200 200 201 200 200 199 198 198 198 200 205 210 213 215 215 212 209 208 209 210 211 213 212 213 225 233 234 235 237 236 234 232 230 225 219 213 212 214 223 236 251 259 257 265 278 276 271 266 260 258 258 257 254 253 254 256 258 260 262 261 259
222 216 204 199 196 195 195 195 196 197 200 205 210 212 214 216 217 215 213 211 209 209 209 212 215 213 217 229 234 235 235 232 232 232 231 229 222 212 208 210 215 227 242 249 251 261 268 263 258 256 251 251 257 258 253 248 249 252 254 256 261 263 260
225 216 208 200 191 190 190 191 195 199 204 209 212 214 215 217 218 217 218 219 217 215 216 216 214 208 216 227 230 230 231 234 239 239 237 238 231 214 207 210 215 226 239 244 248 257 261 258 252 248 247 249 256 259 255 249 246 248 250 251 257 263 262
227 215 204 197 192 192 190 190 197 202 207 210 212 214 216 217 218 218 222 225 225 224 224 223 217 215 223 227 222 222 231 236 240 240 238 233 224 213 210 214 221 228 234 240 246 251 254 256 254 248 245 247 251 253 254 251 246 245 247 248 253 261 263
218 211 198 197 200 202 199 196 199 203 207 210 210 212 214 216 218 220 223 226 228 228 229 227 224 225 226 222 216 219 227 228 227 231 232 220 206 205 215 223 227 228 228 235 245 251 252 255 254 248 243 242 244 247 249 250 246 244 245 247 252 259 262
221 210 202 208 211 209 207 206 205 205 207 208 209 211 213 215 217 219 221 223 226 228 229 226 222 221 215 213 220 225 225 228 232 237 240 230 212 208 215 222 225 226 229 234 243 252 255 254 254 250 241 238 240 243 245 246 245 245 245 246 249 256 260
234 217 211 218 218 211 209 208 208 208 208 209 211 212 213 214 215 216 217 218 221 225 224 219 214 211 200 204 225 232 234 240 244 248 251 248 230 213 211 217 221 224 230 236 244 254 257 254 254 250 241 237 239 242 244 246 246 246 246 243 243 250 255
250 235 221 218 214 208 207 207 207 209 209 208 208 209 210 211 212 212 210 209 211 213 213 210 206 201 194 204 223 233 240 244 244 244 245 241 231 219 213 215 219 223 231 238 246 254 256 252 252 250 243 239 240 242 244 246 247 246 245 240 236 241 248
262 249 228 213 206 204 204 202 201 203 203 200 199 202 204 203 204 205 201 197 196 193 196 201 196 189 194 206 221 231 238 241 239 236 236 233 230 223 215 215 219 224 232 239 246 250 250 249 249 248 244 240 240 242 243 243 245 246 243 234 230 233 240
249 237 224 214 205 204 203 197 194 198 196 191 190 192 191 189 194 198 196 195 196 192 191 193 182 179 194 207 221 233 235 236 236 232 229 229 229 222 216 217 221 226 233 239 244 245 246 246 246 246 245 242 241 243 242 239 241 242 237 231 229 230 234
231 216 209 206 199 199 199 194 191 191 187 182 182 181 178 178 184 188 184 184 185 181 183 186 179 178 194 209 225 236 235 231 230 228 226 226 224 220 218 221 225 229 234 238 241 242 243 244 245 246 245 242 240 241 242 241 241 241 237 234 233 233 234
224 211 206 203 202 206 204 195 192 191 187 182 177 170 164 162 162 163 163 161 159 157 159 170 177 179 191 208 224 229 229 227 225 223 221 219 217 215 216 221 226 230 233 236 239 242 243 244 245 246 245 243 239 239 241 241 241 241 242 241 238 236 238
208 200 196 196 204 211 205 196 195 195 188 177 165 156 152 152 152 153 150 146 143 143 146 155 167 175 186 202 214 218 221 224 221 214 208 207 208 207 207 214 220 224 230 235 238 240 242 244 245 246 248 247 242 239 241 242 242 241 241 241 240 239 244
196 185 178 181 192 197 192 187 181 175 169 163 155 149 148 148 147 146 144 141 142 144 149 155 162 167 177 190 200 206 209 211 207 200 197 197 198 199 201 206 212 217 226 232 234 237 241 244 244 243 247 249 244 237 237 242 245 241 238 241 244 246 250
183 174 169 171 175 174 172 169 161 156 157 155 147 143 143 142 141 141 141 143 145 148 151 153 155 158 162 165 173 181 183 183 184 187 188 188 189 193 196 199 206 218 227 230 232 235 240 242 240 237 243 250 245 236 236 242 245 238 234 242 249 251 252
161 159 158 159 160 158 155 153 150 149 150 146 140 137 137 136 135 135 137 139 141 143 147 148 148 149 147 143 147 155 160 165 173 179 184 186 185 185 189 195 205 219 229 231 230 230 232 235 236 237 243 248 242 239 241 243 240 234 236 247 253 251 251
144 144 145 147 149 147 143 142 141 140 139 136 133 132 131 131 131 132 132 132 132 134 139 143 144 144 141 138 140 147 155 163 173 181 189 192 187 182 188 198 205 213 219 219 216 216 219 223 228 234 240 238 233 236 239 236 235 240 247 249 247 244 250
125 126 130 134 135 134 132 133 133 132 130 129 127 126 126 127 127 126 126 126 127 128 130 135 142 149 149 146 147 152 159 168 177 184 190 195 194 190 192 198 202 207 207 201 200 211 218 219 223 227 230 231 230 232 235 236 244 252 249 237 233 238 253
114 115 119 123 124 123 125 128 128 127 127 125 123 123 123 123 122 121 122 122 122 125 131 137 147 158 161 159 158 161 165 170 177 182 186 190 194 195 197 200 203 207 208 201 200 210 214 214 218 221 224 231 236 236 238 244 250 250 240 231 233 243 256
110 112 113 115 115 115 119 124 125 125 125 125 126 127 126 122 119 120 124 128 131 142 151 153 158 165 168 165 163 165 169 173 180 184 185 187 193 198 200 202 204 210 216 212 206 205 207 207 213 218 223 230 234 235 237 241 244 243 236 233 241 253 261
105 108 108 108 108 106 111 118 121 120 119 119 120 121 118 111 106 114 130 140 146 159 167 169 171 172 171 167 165 168 173 179 185 189 188 188 193 198 201 204 206 214 221 213 200 199 203 206 212 217 221 224 229 233 234 233 234 239 241 242 248 258 259
95 97 99 102 104 102 103 110 114 114 113 111 108 107 109 109 109 121 140 147 158 179 186 186 184 180 174 169 168 172 176 181 186 191 192 192 193 196 202 205 205 211 214 203 197 202 207 209 216 221 222 222 225 229 230 230 232 237 241 241 244 250 250
96 96 97 99 101 100 100 103 106 107 109 112 114 115 118 123 133 151 162 166 180 192 193 189 185 181 174 166 167 172 173 175 179 179 180 187 190 193 198 201 201 206 209 203 204 212 217 217 219 222 224 224 223 223 229 234 237 240 241 238 240 244 242
101 100 99 98 97 97 97 98 97 98 105 114 123 133 141 147 154 164 172 180 189 192 189 184 178 172 165 159 160 164 164 167 170 165 166 179 186 184 185 190 194 200 207 210 213 219 223 225 225 225 225 223 219 223 233 239 240 241 238 229 228 232 232
101 102 102 100 98 97 98 97 91 89 102 116 126 139 148 154 159 165 170 174 178 178 176 171 164 157 155 154 156 158 158 162 166 166 172 187 194 194 196 202 204 203 212 226 237 238 232 225 220 218 217 216 220 228 234 236 237 234 226 219 221 226 230
98 100 102 103 102 101 101 99 94 94 109 120 128 138 144 147 152 156 160 161 160 159 159 155 148 147 149 149 150 154 156 159 166 173 184 198 208 209 211 221 227 226 232 248 263 264 245 220 206 203 202 203 219 228 225 226 230 228 222 223 227 229 232
94 94 97 104 108 107 104 101 99 102 114 122 126 132 136 140 145 148 152 152 147 146 147 143 140 142 142 143 151 155 153 158 168 176 185 197 206 211 216 226 233 234 240 251 256 248 225 207 204 208 206 201 215 227 225 224 228 229 227 229 229 229 233
87 88 92 103 111 113 110 108 106 110 120 124 122 121 125 133 139 141 144 144 139 139 141 138 137 139 140 146 157 158 156 161 168 173 181 191 202 212 219 225 228 226 228 233 230 219 207 201 205 213 212 211 221 230 230 232 236 235 231 230 230 232 238
Height
1460 1462 1465 1468 1471 1476 1480 1484 1488 1491 1494 1496 1498 1502 1505 1507 1510 1513 1515 1517 1519 1522 1525 1527 1529 1530 1532 1534 1536 1538 1539 1541 1543 1544 1546 1547 1549 1551 1553 1555 1557 1558 1560 1561 1563 1564 1564 1565 1566 1566 1566 1566 1566 1566 1567 1567 1567 1568 1568 1568 1568 1568 1568
1455 1457 1460 1463 1465 1469 1474 1479 1483 1486 1489 1491 1494 1497 1500 1503 1505 1507 1510 1513 1515 1518 1521 1524 1525 1527 1529 1531 1533 1535 1536 1538 1540 1541 1543 1545 1548 1550 1552 1554 1556 1558 1559 1561 1562 1563 1564 1565 1565 1565 1565 1565 1566 1566 1566 1567 1567 1568 1568 1568 1568 1568 1568
1450 1452 1455 1458 1461 1464 1468 1473 1476 1479 1483 1486 1489 1493 1495 1498 1500 1503 1506 1509 1511 1515 1518 1520 1522 1524 1526 1528 1530 1531 1533 1535 1537 1539 1541 1543 1546 1548 1551 1552 1554 1556 1558 1559 1560 1561 1562 1563 1563 1564 1564 1564 1565 1565 1566 1566 1567 1567 1567 1568 1568 1568 1568
1445 1447 1451 1454 1457 1460 1463 1466 1470 1473 1478 1481 1484 1488 1491 1494 1497 1499 1503 1505 1508 1511 1513 1516 1518 1520 1522 1524 1525 1528 1529 1532 1534 1536 1540 1543 1545 1548 1550 1551 1553 1555 1557 1557 1558 1559 1560 1561 1561 1561 1562 1563 1564 1564 1565 1566 1566 1566 1566 1566 1567 1567 1567
1441 1443 1447 1451 1453 1457 1459 1461 1465 1468 1473 1478 1481 1484 1487 1490 1494 1496 1499 1502 1505 1508 1510 1512 1515 1516 1518 1519 1521 1524 1526 1528 1531 1535 1538 1542 1544 1546 1548 1550 1552 1554 1555 1556 1558 1558 1559 1559 1559 1560 1561 1562 1563 1563 1564 1564 1564 1565 1565 1565 1565 1565 1566
1437 1440 1443 1446 1449 1452 1454 1457 1461 1465 1469 1473 1477 1481 1484 1488 1491 1493 1496 1499 1501 1504 1507 1509 1511 1512 1514 1516 1518 1520 1522 1526 1529 1532 1536 1539 1542 1544 1547 1549 1551 1553 1555 1556 1557 1558 1558 1559 1559 1559 1560 1561 1562 1562 1562 1562 1563 1563 1563 1563 1563 1563 1564
1433 1436 1438 1441 1444 1447 1449 1452 1456 1461 1465 1470 1475 1478 1480 1484 1487 1490 1493 1495 1497 1501 1503 1505 1507 1509 1510 1512 1515 1517 1519 1522 1525 1529 1532 1535 1539 1542 1545 1548 1551 1553 1554 1556 1557 1558 1559 1559 1559 1559 1559 1560 1561 1561 1561 1560 1561 1561 1561 1561 1561 1561 1561
1429 1431 1434 1436 1439 1442 1445 1448 1452 1456 1461 1466 1470 1473 1476 1480 1483 1486 1489 1491 1494 1497 1499 1502 1504 1505 1507 1509 1512 1513 1516 1518 1521 1524 1528 1531 1535 1538 1542 1546 1549 1553 1555 1555 1556 1557 1559 1560 1559 1559 1558 1559 1559 1559 1559 1559 1558 1559 1559 1559 1559 1559 1559
1427 1428 1430 1432 1436 1438 1441 1445 1449 1453 1458 1461 1464 1468 1472 1475 1479 1482 1485 1488 1491 1493 1495 1498 1501 1502 1504 1506 1508 1510 1512 1514 1516 1521 1525 1527 1530 1534 1539 1545 1549 1552 1553 1554 1556 1558 1558 1559 1559 1558 1557 1557 1558 1557 1557 1557 1556 1556 1556 1556 1556 1556 1556
1425 1426 1428 1430 1433 1435 1438 1442 1446 1450 1453 1455 1459 1463 1467 1471 1474 1478 1482 1485 1488 1489 1492 1495 1498 1500 1500 1502 1504 1506 1508 1510 1513 1518 1521 1524 1528 1532 1537 1545 1550 1552 1551 1554 1558 1559 1558 1559 1559 1557 1555 1554 1554 1554 1554 1553 1553 1552 1552 1552 1553 1552 1553
1422 1423 1425 1427 1430 1433 1435 1439 1441 1445 1448 1450 1453 1458 1462 1466 1470 1474 1477 1480 1483 1486 1489 1491 1494 1497 1498 1499 1502 1504 1505 1508 1511 1516 1519 1522 1525 1529 1534 1541 1546 1549 1550 1552 1555 1556 1556 1557 1556 1554 1552 1549 1549 1549 1549 1549 1549 1549 1549 1549 1549 1550 1550
1419 1420 1423 1425 1427 1429 1432 1435 1438 1440 1443 1446 1449 1453 1458 1462 1465 1469 1473 1476 1479 1483 1485 1487 1490 1494 1496 1497 1500 1501 1503 1507 1511 1516 1520 1522 1524 1526 1529 1535 1541 1545 1547 1546 1547 1549 1550 1551 1550 1548 1545 1542 1542 1542 1542 1543 1545 1546 1546 1547 1547 1548 1548
1417 1418 1420 1423 1425 1427 1429 1432 1434 1436 1439 1442 1446 1450 1453 1457 1461 1465 1468 1471 1475 1478 1481 1483 1487 1490 1492 1493 1496 1497 1498 1501 1504 1509 1515 1521 1524 1523 1523 1529 1536 1540 1540 1540 1540 1540 1539 1538 1539 1538 1536 1534 1535 1536 1537 1539 1541 1543 1543 1544 1545 1546 1546
1414 1416 1418 1420 1422 1424 1426 1429 1431 1433 1436 1440 1444 1447 1450 1453 1457 1460 1463 1466 1470 1474 1476 1479 1482 1485 1486 1489 1493 1494 1492 1494 1498 1501 1505 1511 1517 1520 1521 1526 1530 1531 1532 1532 1529 1527 1525 1524 1525 1526 1526 1526 1528 1530 1532 1533 1536 1539 1540 1541 1542 1543 1544
1412 1413 1414 1416 1418 1419 1422 1425 1427 1430 1433 1437 1441 1444 1446 1450 1453 1456 1459 1463 1466 1469 1472 1475 1478 1480 1483 1487 1490 1490 1489 1491 1494 1497 1500 1503 1509 1516 1519 1521 1521 1519 1518 1518 1516 1516 1515 1516 1517 1519 1519 1520 1522 1526 1528 1530 1532 1535 1537 1538 1539 1541 1542
1409 1410 1411 1412 1414 1416 1418 1420 1423 1427 1430 1433 1437 1439 1442 1446 1449 1452 1456 1459 1462 1466 1468 1471 1474 1477 1480 1483 1484 1485 1486 1488 1490 1493 1496 1498 1503 1506 1508 1509 1510 1508 1506 1506 1509 1512 1513 1514 1515 1516 1517 1518 1521 1524 1526 1528 1529 1531 1533 1535 1537 1539 1540
1405 1407 1408 1408 1410 1413 1415 1417 1420 1423 1426 1429 1432 1435 1438 1442 1445 1449 1453 1456 1459 1461 1464 1468 1470 1473 1477 1479 1479 1480 1482 1484 1486 1489 1491 1493 1495 1497 1498 1499 1500 1500 1500 1502 1506 1509 1510 1511 1512 1513 1515 1517 1520 1523 1524 1525 1526 1528 1530 1532 1534 1536 1537
1403 1405 1405 1406 1408 1409 1412 1414 1415 1418 1421 1425 1429 1432 1435 1439 1442 1446 1449 1452 1455 1458 1461 1464 1467 1470 1474 1476 1475 1476 1478 1480 1481 1483 1485 1486 1489 1491 1492 1494 1495 1496 1497 1498 1501 1503 1505 1507 1508 1510 1511 1514 1517 1520 1521 1522 1523 1525 1527 1528 1530 1532 1533
1403 1403 1405 1406 1406 1407 1410 1412 1413 1415 1419 1423 1427 1430 1433 1437 1439 1442 1446 1449 1452 1455 1458 1461 1464 1468 1470 1471 1471 1472 1473 1475 1476 1478 1479 1481 1484 1487 1489 1491 1493 1493 1494 1495 1496 1498 1500 1503 1505 1506 1508 1510 1514 1517 1518 1520 1521 1522 1523 1525 1526 1527 1528
1401 1402 1403 1405 1405 1405 1407 1410 1412 1414 1417 1421 1425 1428 1431 1434 1437 1440 1443 1446 1449 1452 1455 1457 1461 1464 1465 1466 1467 1468 1469 1471 1472 1474 1475 1477 1480 1483 1485 1488 1489 1491 1492 1493 1493 1494 1496 1499 1501 1503 1504 1507 1511 1514 1516 1517 1518 1519 1520 1521 1522 1523 1524
1399 1400 1401 1403 1404 1404 1404 1406 1408 1410 1413 1418 1421 1425 1428 1431 1435 1438 1441 1444 1447 1449 1452 1454 1457 1460 1461 1462 1463 1464 1466 1468 1469 1471 1473 1475 1477 1478 1481 1484 1486 1488 1490 1491 1492 1492 1494 1496 1498 1500 1502 1504 1508 1512 1513 1514 1515 1516 1517 1519 1520 1521 1521
1396 1397 1398 1399 1400 1401 1402 1403 1405 1407 1410 1414 1417 1421 1424 1428 1433 1436 1440 1443 1445 1447 1449 1452 1454 1456 1457 1458 1460 1462 1463 1465 1467 1470 1472 1473 1475 1476 1479 1481 1483 1486 1488 1489 1491 1492 1493 1494 1496 1498 1501 1503 1505 1508 1510 1510 1512 1514 1515 1517 1518 1519 1518
1394 1395 1395 1396 1398 1399 1399 1401 1403 1405 1409 1412 1414 1417 1421 1425 1430 1434 1437 1440 1443 1445 1447 1449 1451 1452 1453 1455 1457 1458 1461 1463 1466 1469 1472 1473 1474 1476 1478 1480 1482 1485 1486 1488 1490 1490 1491 1493 1494 1497 1499 1501 1502 1504 1506 1507 1509 1511 1513 1515 1516 1516 1516
1391 1392 1392 1393 1395 1396 1397 1398 1400 1403 1408 1412 1413 1414 1417 1422 1426 1430 1434 1437 1440 1442 1445 1446 1448 1450 1451 1453 1454 1456 1459 1462 1465 1468 1471 1472 1474 1475 1478 1480 1482 1484 1485 1486 1488 1489 1491 1493 1494 1496 1497 1498 1498 1501 1503 1504 1505 1508 1511 1512 1513 1514 1513
1388 1389 1390 1390 1391 1393 1394 1396 1399 1402 1407 1411 1412 1413 1416 1420 1423 1428 1431 1434 1437 1440 1442 1445 1447 1449 1450 1451 1453 1455 1458 1461 1464 1467 1469 1471 1473 1475 1477 1479 1481 1483 1484 1485 1487 1489 1490 1492 1494 1494 1495 1496 1497 1497 1500 1502 1503 1506 1508 1509 1510 1510 1511
1386 1386 1387 1388 1389 1390 1392 1395 1399 1403 1408 1411 1411 1413 1416 1420 1423 1427 1430 1433 1436 1438 1440 1443 1446 1448 1449 1450 1451 1453 1456 1459 1462 1465 1467 1469 1471 1473 1475 1477 1479 1481 1482 1484 1486 1488 1490 1492 1493 1493 1493 1495 1495 1495 1497 1500 1501 1503 1505 1506 1506 1507 1508
1385 1385 1386 1388 1388 1389 1392 1396 1400 1404 1408 1410 1412 1414 1417 1420 1423 1426 1430 1432 1434 1435 1437 1440 1444 1446 1447 1448 1450 1452 1454 1457 1460 1463 1466 1468 1470 1471 1474 1476 1478 1480 1482 1484 1485 1487 1489 1490 1491 1492 1492 1493 1494 1494 1495 1497 1499 1500 1502 1503 1503 1504 1504
1385 1385 1387 1388 1390 1392 1395 1398 1402 1405 1408 1410 1412 1414 1417 1420 1423 1426 1428 1431 1433 1434 1434 1436 1440 1442 1444 1445 1447 1450 1453 1456 1459 1461 1464 1466 1468 1470 1472 1474 1477 1479 1481 1483 1484 1486 1487 1489 1490 1490 1491 1492 1493 1494 1494 1496 1497 1498 1499 1500 1500 1501 1501
1385 1387 1389 1391 1394 1397 1398 1401 1404 1407 1409 1411 1413 1415 1417 1419 1421 1424 1427 1429 1431 1433 1433 1433 1435 1437 1439 1441 1444 1447 1451 1454 1456 1458 1461 1463 1466 1469 1471 1473 1476 1478 1479 1481 1483 1484 1485 1486 1488 1489 1489 1491 1491 1492 1493 1494 1495 1496 1497 1497 1498 1498 1498
1389 1391 1393 1396 1399 1400 1402 1403 1405 1407 1410 1412 1414 1416 1418 1419 1419 1420 1423 1427 1430 1432 1433 1432 1433 1434 1436 1438 1441 1445 1449 1451 1454 1456 1458 1461 1464 1467 1469 1472 1475 1477 1478 1480 1481 1483 1484 1485 1486 1487 1488 1489 1490 1490 1492 1493 1494 1494 1495 1496 1496 1496 1496
1392 1394 1396 1398 1400 1402 1404 1406 1407 1409 1411 1412 1414 1416 1418 1419 1419 1419 1421 1424 1428 1432 1433 1433 1432 1432 1433 1436 1439 1443 1446 1449 1452 1454 1456 1459 1462 1465 1468 1471 1473 1475 1476 1478 1480 1481 1482 1483 1484 1485 1486 1488 1488 1489 1490 1491 1492 1492 1493 1494 1494 1494 1495
1394 1397 1399 1400 1401 1403 1405 1407 1408 1410 1412 1413 1415 1416 1418 1419 1419 1420 1421 1422 1425 1430 1433 1432 1430 1430 1432 1435 1438 1440 1444 1447 1450 1452 1454 1457 1461 1464 1467 1470 1472 1473 1474 1476 1478 1480 1481 1482 1483 1484 1485 1486 1486 1487 1487 1489 1490 1490 1491 1492 1492 1492 1493
1396 1398 1401 1402 1403 1405 1406 1408 1410 1412 1413 1414 1416 1417 1418 1418 1418 1419 1421 1422 1423 1427 1430 1430 1429 1430 1432 1435 1438 1440 1443 1446 1448 1451 1453 1456 1460 1464 1466 1468 1470 1471 1473 1475 1477 1478 1478 1479 1480 1481 1482 1483 1484 1485 1486 1487 1488 1488 1489 1489 1490 1490 1491
1399 1400 1402 1404 1405 1406 1408 1409 1411 1413 1414 1415 1416 1417 1418 1418 1418 1419 1420 1422 1423 1425 1427 1427 1428 1430 1432 1436 1439 1441 1443 1445 1447 1450 1453 1456 1459 1462 1465 1466 1468 1470 1472 1473 1474 1475 1476 1477 1477 1479 1480 1481 1482 1483 1484 1485 1486 1487 1487 1488 1488 1488 1489
1401 1402 1404 1405 1406 1408 1410 1411 1412 1414 1415 1416 1417 1418 1418 1418 1419 1419 1420 1421 1422 1422 1423 1424 1426 1429 1432 1435 1438 1441 1443 1445 1447 1450 1453 1456 1457 1460 1462 1463 1466 1468 1470 1470 1471 1473 1473 1474 1476 1477 1478 1480 1481 1481 1483 1484 1485 1485 1485 1486 1486 1486 1487
1403 1404 1405 1406 1408 1409 1411 1412 1413 1415 1417 1418 1419 1419 1419 1419 1419 1419 1419 1419 1419 1419 1420 1422 1425 1429 1432 1434 1437 1440 1442 1445 1448 1451 1453 1455 1456 1458 1460 1461 1463 1466 1467 1468 1469 1470 1471 1472 1474 1475 1477 1478 1479 1480 1481 1482 1483 1483 1483 1483 1484 1484 1485
1404 1405 1406 1407 1408 1410 1412 1413 1414 1416 1417 1418 1419 1419 1419 1419 1418 1418 1418 1418 1418 1419 1420 1422 1426 1430 1432 1435 1437 1439 1442 1446 1448 1450 1452 1453 1454 1456 1457 1459 1461 1463 1465 1466 1467 1468 1469 1471 1472 1473 1474 1476 1477 1478 1479 1480 1480 1481 1481 1481 1481 1482 1483
1406 1407 1408 1409 1409 1410 1412 1414 1415 1417 1417 1418 1419 1419 1419 1419 1418 1418 1417 1418 1419 1420 1421 1423 1427 1429 1432 1434 1437 1439 1442 1445 1447 1449 1451 1452 1453 1454 1455 1457 1459 1461 1463 1464 1465 1467 1468 1469 1470 1472 1473 1474 1475 1476 1477 1478 1478 1478 1478 1479 1479 1480 1480